N228VP KJAC-KBLI

Flight info

Callsign N228VP
Flight time 2h 34m
Altitude 28000
Route ALPIN5 KICNE IDA DBS J82 DNJ J20 YKM PAE
Aircraft TBM8/L-SDFGRWY/S

Departure

Time 2026-04-26 14:40
Airport Jackson Hole Airport (KJAC)

Arrival

Time 2026-04-26 17:15
Airport Bellingham International Airport (KBLI)
Time Latitude Longitude Altitude Speed Heading
2026-04-26 14:27 43.60130 -110.73840 6421 ft 0 kts 269°
2026-04-26 14:36 43.60132 -110.73852 6421 ft 6 kts 316°
2026-04-26 14:36 43.60175 -110.73873 6420 ft 8 kts 350°
2026-04-26 14:36 43.60238 -110.73860 6422 ft 12 kts 20°
2026-04-26 14:36 43.60345 -110.73807 6425 ft 20 kts 19°
2026-04-26 14:37 43.60501 -110.73732 6426 ft 27 kts 21°
2026-04-26 14:37 43.60672 -110.73647 6433 ft 25 kts 20°
2026-04-26 14:37 43.60829 -110.73569 6437 ft 23 kts 21°
2026-04-26 14:37 43.60979 -110.73498 6440 ft 24 kts 18°
2026-04-26 14:38 43.61141 -110.73423 6443 ft 25 kts 20°
2026-04-26 14:38 43.61303 -110.73340 6447 ft 21 kts 20°
2026-04-26 14:38 43.61423 -110.73282 6450 ft 19 kts 21°
2026-04-26 14:38 43.61493 -110.73263 6452 ft 13 kts 338°
2026-04-26 14:39 43.61534 -110.73373 6451 ft 10 kts 272°
2026-04-26 14:39 43.61438 -110.73431 6442 ft 31 kts 199°
2026-04-26 14:39 43.61088 -110.73603 6438 ft 75 kts 199°
2026-04-26 14:39 43.60477 -110.73899 6448 ft 109 kts 200°
2026-04-26 14:40 43.59711 -110.74282 6630 ft 122 kts 202°
2026-04-26 14:40 43.58856 -110.74711 6867 ft 137 kts 200°
2026-04-26 14:40 43.57927 -110.75125 7206 ft 146 kts 202°
2026-04-26 14:40 43.56989 -110.75648 7662 ft 143 kts 200°
2026-04-26 14:41 43.56102 -110.76274 8074 ft 145 kts 213°
2026-04-26 14:41 43.55209 -110.76962 8489 ft 147 kts 207°
2026-04-26 14:41 43.54281 -110.77586 8920 ft 149 kts 207°
2026-04-26 14:41 43.53341 -110.78211 9348 ft 151 kts 207°
2026-04-26 14:42 43.52394 -110.78832 9775 ft 151 kts 207°
2026-04-26 14:42 43.51450 -110.79456 10223 ft 150 kts 207°
2026-04-26 14:42 43.50506 -110.80077 10654 ft 150 kts 207°
2026-04-26 14:42 43.49564 -110.80699 11111 ft 150 kts 207°
2026-04-26 14:43 43.48631 -110.81309 11527 ft 150 kts 207°
2026-04-26 14:43 43.47691 -110.81931 11963 ft 149 kts 207°
2026-04-26 14:43 43.46749 -110.82549 12380 ft 150 kts 207°
2026-04-26 14:43 43.45811 -110.83165 12807 ft 149 kts 208°
2026-04-26 14:44 43.44872 -110.83778 13198 ft 149 kts 206°
2026-04-26 14:44 43.43927 -110.84370 13595 ft 149 kts 207°
2026-04-26 14:44 43.42992 -110.84985 13975 ft 149 kts 208°
2026-04-26 14:44 43.42058 -110.85602 14360 ft 149 kts 208°
2026-04-26 14:45 43.41126 -110.86221 14740 ft 148 kts 208°
2026-04-26 14:45 43.40510 -110.86626 14981 ft 148 kts 208°
2026-04-26 14:45 43.39274 -110.87437 15470 ft 148 kts 208°
2026-04-26 14:45 43.38341 -110.88047 15820 ft 148 kts 209°
2026-04-26 14:46 43.37414 -110.88655 16209 ft 148 kts 209°
2026-04-26 14:46 43.36484 -110.89262 16553 ft 148 kts 209°
2026-04-26 14:46 43.35552 -110.89870 16904 ft 148 kts 210°
2026-04-26 14:46 43.34627 -110.90481 17274 ft 147 kts 210°
2026-04-26 14:47 43.33702 -110.91087 17601 ft 148 kts 210°
2026-04-26 14:47 43.32770 -110.91698 17890 ft 148 kts 210°
2026-04-26 14:47 43.31838 -110.92302 18245 ft 148 kts 210°
2026-04-26 14:47 43.30919 -110.92906 18545 ft 148 kts 210°
2026-04-26 14:48 43.29988 -110.93511 18834 ft 148 kts 210°
2026-04-26 14:48 43.29058 -110.94120 19121 ft 148 kts 210°
2026-04-26 14:48 43.28127 -110.94729 19401 ft 148 kts 210°
2026-04-26 14:48 43.27199 -110.95336 19711 ft 148 kts 210°
2026-04-26 14:49 43.26266 -110.95944 19990 ft 149 kts 210°
2026-04-26 14:49 43.25331 -110.96555 20302 ft 148 kts 210°
2026-04-26 14:49 43.24393 -110.97160 20599 ft 149 kts 210°
2026-04-26 14:49 43.23461 -110.97771 20887 ft 148 kts 212°
2026-04-26 14:50 43.22733 -110.98728 21157 ft 148 kts 238°
2026-04-26 14:50 43.22421 -111.00080 21390 ft 154 kts 261°
2026-04-26 14:50 43.22665 -111.01558 21669 ft 165 kts 281°
2026-04-26 14:50 43.23077 -111.03011 21921 ft 166 kts 280°
2026-04-26 14:51 43.23516 -111.04483 22199 ft 167 kts 280°
2026-04-26 14:51 43.23926 -111.05974 22444 ft 167 kts 280°
2026-04-26 14:51 43.24358 -111.07457 22724 ft 168 kts 281°
2026-04-26 14:51 43.24774 -111.08951 22982 ft 168 kts 279°
2026-04-26 14:52 43.25194 -111.10451 23237 ft 169 kts 280°
2026-04-26 14:52 43.25625 -111.11955 23507 ft 171 kts 280°
2026-04-26 14:52 43.26062 -111.13463 23759 ft 171 kts 280°
2026-04-26 14:52 43.26489 -111.14981 24003 ft 170 kts 279°
2026-04-26 14:53 43.26918 -111.16498 24199 ft 171 kts 280°
2026-04-26 14:53 43.27354 -111.18027 24434 ft 172 kts 280°
2026-04-26 14:53 43.27777 -111.19552 24660 ft 171 kts 279°
2026-04-26 14:53 43.28203 -111.21075 24896 ft 171 kts 279°
2026-04-26 14:54 43.28637 -111.22592 25111 ft 171 kts 279°
2026-04-26 14:54 43.29078 -111.24116 25365 ft 172 kts 279°
2026-04-26 14:54 43.29497 -111.25649 25635 ft 172 kts 278°
2026-04-26 14:54 43.29919 -111.27166 25902 ft 173 kts 280°
2026-04-26 14:55 43.30363 -111.28697 26157 ft 171 kts 278°
2026-04-26 14:55 43.30793 -111.30231 26371 ft 172 kts 279°
2026-04-26 14:55 43.31222 -111.31759 26567 ft 172 kts 279°
2026-04-26 14:55 43.31655 -111.33297 26792 ft 173 kts 279°
2026-04-26 14:56 43.32091 -111.34835 26993 ft 173 kts 280°
2026-04-26 14:56 43.32521 -111.36374 27203 ft 173 kts 278°
2026-04-26 14:56 43.32946 -111.37917 27392 ft 173 kts 279°
2026-04-26 14:56 43.33384 -111.39455 27593 ft 172 kts 279°
2026-04-26 14:57 43.33817 -111.40995 27769 ft 173 kts 279°
2026-04-26 14:57 43.34103 -111.42018 27887 ft 174 kts 279°
2026-04-26 14:57 43.34538 -111.43584 27968 ft 179 kts 279°
2026-04-26 14:57 43.35001 -111.45228 27978 ft 189 kts 280°
2026-04-26 14:58 43.35491 -111.46960 27982 ft 200 kts 281°
2026-04-26 14:58 43.36003 -111.48795 27981 ft 211 kts 281°
2026-04-26 14:58 43.36541 -111.50720 27982 ft 220 kts 282°
2026-04-26 14:58 43.37102 -111.52719 27978 ft 228 kts 282°
2026-04-26 14:59 43.37681 -111.54787 27972 ft 235 kts 282°
2026-04-26 14:59 43.38279 -111.56923 27971 ft 242 kts 282°
2026-04-26 14:59 43.38892 -111.59118 27971 ft 249 kts 282°
2026-04-26 14:59 43.39305 -111.60599 27970 ft 252 kts 283°
2026-04-26 15:00 43.40156 -111.63652 27969 ft 259 kts 283°
2026-04-26 15:00 43.40807 -111.65986 27968 ft 262 kts 283°
2026-04-26 15:00 43.41456 -111.68345 27973 ft 266 kts 283°
2026-04-26 15:00 43.42120 -111.70737 27973 ft 269 kts 283°
2026-04-26 15:01 43.42793 -111.73152 27970 ft 271 kts 283°
2026-04-26 15:01 43.43458 -111.75557 27969 ft 272 kts 283°
2026-04-26 15:01 43.44133 -111.77999 27974 ft 274 kts 283°
2026-04-26 15:01 43.44815 -111.80458 27958 ft 276 kts 283°
2026-04-26 15:02 43.45494 -111.82936 27956 ft 277 kts 283°
2026-04-26 15:02 43.46179 -111.85421 27953 ft 278 kts 283°
2026-04-26 15:02 43.46867 -111.87914 27953 ft 279 kts 283°
2026-04-26 15:02 43.47556 -111.90416 27950 ft 280 kts 283°
2026-04-26 15:03 43.48246 -111.92925 27946 ft 280 kts 283°
2026-04-26 15:03 43.48936 -111.95432 27944 ft 280 kts 283°
2026-04-26 15:03 43.49621 -111.97939 27945 ft 279 kts 283°
2026-04-26 15:03 43.50303 -112.00447 27945 ft 279 kts 283°
2026-04-26 15:04 43.51101 -112.02904 27963 ft 287 kts 293°
2026-04-26 15:04 43.52417 -112.05053 27966 ft 302 kts 309°
2026-04-26 15:04 43.54200 -112.06654 27967 ft 318 kts 326°
2026-04-26 15:04 43.56384 -112.07516 27962 ft 332 kts 341°
2026-04-26 15:05 43.58663 -112.08075 27963 ft 332 kts 342°
2026-04-26 15:05 43.60170 -112.08442 27963 ft 333 kts 341°
2026-04-26 15:05 43.63225 -112.09218 27840 ft 336 kts 341°
2026-04-26 15:05 43.65537 -112.09810 27754 ft 338 kts 341°
2026-04-26 15:06 43.67852 -112.10393 27753 ft 337 kts 341°
2026-04-26 15:06 43.70156 -112.10977 27749 ft 336 kts 341°
2026-04-26 15:06 43.72453 -112.11563 27746 ft 335 kts 341°
2026-04-26 15:06 43.74747 -112.12150 27735 ft 335 kts 341°
2026-04-26 15:07 43.79331 -112.13317 27733 ft 334 kts 341°
2026-04-26 15:07 43.81589 -112.13894 27742 ft 334 kts 341°
2026-04-26 15:07 43.83872 -112.14476 27740 ft 334 kts 341°
2026-04-26 15:08 43.86158 -112.15063 27749 ft 334 kts 342°
2026-04-26 15:08 43.88445 -112.15653 27748 ft 335 kts 342°
2026-04-26 15:08 43.90740 -112.16236 27743 ft 336 kts 343°
2026-04-26 15:08 43.93041 -112.16823 27738 ft 337 kts 342°
2026-04-26 15:09 43.95345 -112.17415 27730 ft 337 kts 342°
2026-04-26 15:09 43.97654 -112.18007 27742 ft 338 kts 342°
2026-04-26 15:09 43.99967 -112.18602 27739 ft 338 kts 342°
2026-04-26 15:09 44.02283 -112.19197 27741 ft 338 kts 343°
2026-04-26 15:10 44.04486 -112.20060 27731 ft 328 kts 329°
2026-04-26 15:10 44.05852 -112.21017 27729 ft 321 kts 321°
2026-04-26 15:10 44.08098 -112.23522 27739 ft 307 kts 304°
2026-04-26 15:10 44.09377 -112.25835 27739 ft 297 kts 293°
2026-04-26 15:11 44.10274 -112.28373 27733 ft 288 kts 283°
2026-04-26 15:11 44.10821 -112.31020 27736 ft 283 kts 277°
2026-04-26 15:11 44.11311 -112.33682 27739 ft 284 kts 277°
2026-04-26 15:11 44.11817 -112.36335 27752 ft 283 kts 277°
2026-04-26 15:12 44.12317 -112.38990 27750 ft 283 kts 277°
2026-04-26 15:12 44.12808 -112.41615 27748 ft 284 kts 277°
2026-04-26 15:12 44.13306 -112.44278 27747 ft 284 kts 277°
2026-04-26 15:12 44.13803 -112.46939 27748 ft 284 kts 277°
2026-04-26 15:13 44.14299 -112.49599 27749 ft 283 kts 277°
2026-04-26 15:13 44.14793 -112.52256 27758 ft 283 kts 277°
2026-04-26 15:13 44.15288 -112.54912 27759 ft 283 kts 277°
2026-04-26 15:13 44.15782 -112.57571 27763 ft 283 kts 277°
2026-04-26 15:14 44.16269 -112.60191 27768 ft 283 kts 277°
2026-04-26 15:14 44.16761 -112.62854 27767 ft 283 kts 277°
2026-04-26 15:14 44.17252 -112.65510 27767 ft 283 kts 277°
2026-04-26 15:14 44.17744 -112.68170 27770 ft 283 kts 277°
2026-04-26 15:15 44.18234 -112.70821 27766 ft 282 kts 277°
2026-04-26 15:15 44.18721 -112.73482 27768 ft 284 kts 277°
2026-04-26 15:15 44.19211 -112.76140 27768 ft 283 kts 277°
2026-04-26 15:15 44.19700 -112.78784 27777 ft 281 kts 277°
2026-04-26 15:16 44.20185 -112.81422 27768 ft 281 kts 277°
2026-04-26 15:16 44.20664 -112.84058 27766 ft 280 kts 277°
2026-04-26 15:16 44.21143 -112.86692 27770 ft 281 kts 277°
2026-04-26 15:16 44.21627 -112.89332 27768 ft 282 kts 277°
2026-04-26 15:17 44.22110 -112.91977 27766 ft 282 kts 277°
2026-04-26 15:17 44.22430 -112.93732 27767 ft 281 kts 277°
2026-04-26 15:17 44.23072 -112.97263 27766 ft 281 kts 277°
2026-04-26 15:17 44.23550 -112.99902 27767 ft 281 kts 277°
2026-04-26 15:18 44.24029 -113.02539 27778 ft 280 kts 277°
2026-04-26 15:18 44.24507 -113.05176 27775 ft 280 kts 277°
2026-04-26 15:18 44.24982 -113.07814 27777 ft 280 kts 277°
2026-04-26 15:18 44.25459 -113.10453 27772 ft 280 kts 277°
2026-04-26 15:19 44.25936 -113.13089 27769 ft 280 kts 277°
2026-04-26 15:19 44.26409 -113.15725 27766 ft 280 kts 277°
2026-04-26 15:19 44.26882 -113.18362 27767 ft 280 kts 277°
2026-04-26 15:19 44.27357 -113.20997 27770 ft 280 kts 277°
2026-04-26 15:20 44.27831 -113.23639 27763 ft 281 kts 277°
2026-04-26 15:20 44.28302 -113.26284 27769 ft 281 kts 277°
2026-04-26 15:20 44.28776 -113.28930 27767 ft 281 kts 277°
2026-04-26 15:20 44.29254 -113.31583 27770 ft 282 kts 277°
2026-04-26 15:21 44.29725 -113.34237 27767 ft 282 kts 276°
2026-04-26 15:21 44.30194 -113.36893 27768 ft 282 kts 277°
2026-04-26 15:21 44.30667 -113.39547 27768 ft 282 kts 277°
2026-04-26 15:21 44.31139 -113.42202 27767 ft 282 kts 277°
2026-04-26 15:22 44.31606 -113.44835 27767 ft 283 kts 277°
2026-04-26 15:22 44.32078 -113.47507 27766 ft 283 kts 276°
2026-04-26 15:22 44.32548 -113.50168 27767 ft 282 kts 277°
2026-04-26 15:22 44.33017 -113.52826 27768 ft 282 kts 277°
2026-04-26 15:23 44.33485 -113.55491 27767 ft 281 kts 277°
2026-04-26 15:23 44.33952 -113.58142 27766 ft 281 kts 277°
2026-04-26 15:23 44.34417 -113.60790 27768 ft 281 kts 276°
2026-04-26 15:23 44.34880 -113.63434 27767 ft 280 kts 276°
2026-04-26 15:24 44.35344 -113.66079 27767 ft 280 kts 276°
2026-04-26 15:24 44.35805 -113.68715 27766 ft 279 kts 276°
2026-04-26 15:24 44.36264 -113.71352 27767 ft 279 kts 276°
2026-04-26 15:24 44.36717 -113.73951 27767 ft 279 kts 276°
2026-04-26 15:25 44.37175 -113.76580 27767 ft 278 kts 276°
2026-04-26 15:25 44.37484 -113.78354 27767 ft 278 kts 276°
2026-04-26 15:25 44.38087 -113.81836 27768 ft 278 kts 276°
2026-04-26 15:25 44.38541 -113.84454 27766 ft 277 kts 276°
2026-04-26 15:26 44.38993 -113.87067 27767 ft 276 kts 276°
2026-04-26 15:26 44.39443 -113.89676 27769 ft 276 kts 276°
2026-04-26 15:26 44.39894 -113.92284 27767 ft 276 kts 276°
2026-04-26 15:26 44.40343 -113.94886 27768 ft 276 kts 276°
2026-04-26 15:27 44.40790 -113.97500 27767 ft 277 kts 276°
2026-04-26 15:27 44.41241 -114.00122 27766 ft 277 kts 276°
2026-04-26 15:27 44.41692 -114.02748 27772 ft 277 kts 276°
2026-04-26 15:27 44.42144 -114.05383 27768 ft 278 kts 276°
2026-04-26 15:28 44.42589 -114.07982 27768 ft 278 kts 276°
2026-04-26 15:28 44.43038 -114.10619 27769 ft 279 kts 276°
2026-04-26 15:28 44.43488 -114.13258 27765 ft 280 kts 276°
2026-04-26 15:28 44.43938 -114.15896 27767 ft 277 kts 276°
2026-04-26 15:29 44.44386 -114.18519 27766 ft 278 kts 277°
2026-04-26 15:29 44.44838 -114.21154 27766 ft 280 kts 276°
2026-04-26 15:29 44.45719 -114.26428 27766 ft 278 kts 277°
2026-04-26 15:30 44.46613 -114.31693 27768 ft 279 kts 276°
2026-04-26 15:30 44.47056 -114.34337 27770 ft 278 kts 277°
2026-04-26 15:30 44.47499 -114.36967 27772 ft 278 kts 277°
2026-04-26 15:31 44.47942 -114.39603 27766 ft 278 kts 277°
2026-04-26 15:31 44.48830 -114.44886 27768 ft 279 kts 277°
2026-04-26 15:31 44.49270 -114.47534 27768 ft 279 kts 277°
2026-04-26 15:32 44.50001 -114.51924 27769 ft 279 kts 277°
2026-04-26 15:32 44.50593 -114.55462 27766 ft 279 kts 277°
2026-04-26 15:32 44.51031 -114.58109 27767 ft 279 kts 277°
2026-04-26 15:33 44.51470 -114.60757 27766 ft 279 kts 277°
2026-04-26 15:33 44.51909 -114.63409 27771 ft 280 kts 277°
2026-04-26 15:33 44.52349 -114.66074 27767 ft 281 kts 277°
2026-04-26 15:33 44.52792 -114.68743 27768 ft 280 kts 277°
2026-04-26 15:34 44.53229 -114.71409 27764 ft 281 kts 277°
2026-04-26 15:34 44.53666 -114.74075 27770 ft 280 kts 278°
2026-04-26 15:34 44.54103 -114.76702 27770 ft 281 kts 278°
2026-04-26 15:34 44.54547 -114.79403 27772 ft 281 kts 277°
2026-04-26 15:35 44.54982 -114.82080 27776 ft 282 kts 278°
2026-04-26 15:35 44.55416 -114.84730 27777 ft 283 kts 278°
2026-04-26 15:35 44.55855 -114.87419 27777 ft 283 kts 278°
2026-04-26 15:35 44.56303 -114.90105 27775 ft 283 kts 278°
2026-04-26 15:36 44.56743 -114.92787 27782 ft 283 kts 278°
2026-04-26 15:36 44.57172 -114.95482 27781 ft 284 kts 278°
2026-04-26 15:36 44.57606 -114.98187 27779 ft 285 kts 278°
2026-04-26 15:36 44.58049 -115.00894 27779 ft 284 kts 278°
2026-04-26 15:37 44.58488 -115.03599 27776 ft 284 kts 278°
2026-04-26 15:37 44.58921 -115.06305 27776 ft 285 kts 278°
2026-04-26 15:37 44.59357 -115.09015 27778 ft 285 kts 278°
2026-04-26 15:37 44.59794 -115.11726 27778 ft 285 kts 278°
2026-04-26 15:38 44.60230 -115.14436 27780 ft 285 kts 278°
2026-04-26 15:38 44.60661 -115.17155 27779 ft 285 kts 278°
2026-04-26 15:38 44.61101 -115.19872 27777 ft 286 kts 279°
2026-04-26 15:38 44.61541 -115.22591 27779 ft 285 kts 279°
2026-04-26 15:39 44.61973 -115.25305 27776 ft 285 kts 278°
2026-04-26 15:39 44.62404 -115.28018 27782 ft 284 kts 279°
2026-04-26 15:39 44.62835 -115.30725 27777 ft 284 kts 279°
2026-04-26 15:39 44.62979 -115.31639 27777 ft 284 kts 279°
2026-04-26 15:40 44.63692 -115.36135 27779 ft 283 kts 279°
2026-04-26 15:40 44.64117 -115.38835 27776 ft 283 kts 279°
2026-04-26 15:40 44.64541 -115.41531 27775 ft 283 kts 278°
2026-04-26 15:40 44.64958 -115.44235 27787 ft 283 kts 279°
2026-04-26 15:41 44.65385 -115.46907 27788 ft 284 kts 279°
2026-04-26 15:41 44.65821 -115.49617 27780 ft 285 kts 279°
2026-04-26 15:41 44.66248 -115.52330 27787 ft 284 kts 279°
2026-04-26 15:41 44.66672 -115.55052 27782 ft 285 kts 279°
2026-04-26 15:42 44.67097 -115.57765 27786 ft 284 kts 279°
2026-04-26 15:42 44.67521 -115.60480 27788 ft 284 kts 279°
2026-04-26 15:42 44.67944 -115.63194 27789 ft 285 kts 279°
2026-04-26 15:42 44.68370 -115.65920 27786 ft 285 kts 279°
2026-04-26 15:43 44.68794 -115.68644 27788 ft 285 kts 279°
2026-04-26 15:43 44.69216 -115.71372 27787 ft 286 kts 279°
2026-04-26 15:43 44.70060 -115.76818 27784 ft 285 kts 279°
2026-04-26 15:44 44.70480 -115.79538 27789 ft 284 kts 279°
2026-04-26 15:44 44.71319 -115.84982 27788 ft 285 kts 279°
2026-04-26 15:44 44.71596 -115.86786 27786 ft 285 kts 279°
2026-04-26 15:45 44.72435 -115.92248 27786 ft 286 kts 279°
2026-04-26 15:45 44.72985 -115.95865 27788 ft 286 kts 279°
2026-04-26 15:46 44.73686 -116.00439 27787 ft 286 kts 279°
2026-04-26 15:46 44.74236 -116.04062 27788 ft 286 kts 279°
2026-04-26 15:46 44.74652 -116.06800 27786 ft 287 kts 279°
2026-04-26 15:46 44.74793 -116.07725 27786 ft 287 kts 279°
2026-04-26 15:47 44.75349 -116.11396 27787 ft 287 kts 279°
2026-04-26 15:47 44.76178 -116.16887 27787 ft 286 kts 280°
2026-04-26 15:47 44.76596 -116.19624 27787 ft 286 kts 281°
2026-04-26 15:48 44.77317 -116.22245 27804 ft 290 kts 294°
2026-04-26 15:48 44.78235 -116.24746 27798 ft 291 kts 294°
2026-04-26 15:48 44.79137 -116.27299 27792 ft 291 kts 293°
2026-04-26 15:48 44.80040 -116.29849 27790 ft 291 kts 294°
2026-04-26 15:49 44.80953 -116.32396 27788 ft 291 kts 294°
2026-04-26 15:49 44.81867 -116.34946 27788 ft 292 kts 294°
2026-04-26 15:49 44.82779 -116.37506 27789 ft 292 kts 294°
2026-04-26 15:49 44.83691 -116.40072 27797 ft 293 kts 294°
2026-04-26 15:50 44.84605 -116.42637 27798 ft 293 kts 294°
2026-04-26 15:50 44.85520 -116.45212 27793 ft 293 kts 294°
2026-04-26 15:50 44.86433 -116.47782 27798 ft 293 kts 294°
2026-04-26 15:50 44.87348 -116.50363 27798 ft 294 kts 294°
2026-04-26 15:51 44.88261 -116.52940 27797 ft 294 kts 294°
2026-04-26 15:51 44.89165 -116.55490 27804 ft 294 kts 294°
2026-04-26 15:51 44.90078 -116.58070 27803 ft 294 kts 294°
2026-04-26 15:51 44.90993 -116.60658 27803 ft 295 kts 294°
2026-04-26 15:52 44.91907 -116.63248 27806 ft 295 kts 294°
2026-04-26 15:52 44.92821 -116.65841 27804 ft 295 kts 294°
2026-04-26 15:52 44.93734 -116.68430 27808 ft 295 kts 294°
2026-04-26 15:52 44.94351 -116.70183 27815 ft 295 kts 294°
2026-04-26 15:53 44.95562 -116.73623 27817 ft 295 kts 294°
2026-04-26 15:53 44.96474 -116.76217 27817 ft 295 kts 294°
2026-04-26 15:53 44.97388 -116.78823 27812 ft 296 kts 294°
2026-04-26 15:53 44.98302 -116.81428 27814 ft 296 kts 294°
2026-04-26 15:54 44.99213 -116.84030 27824 ft 296 kts 294°
2026-04-26 15:54 45.00117 -116.86611 27823 ft 296 kts 295°
2026-04-26 15:54 45.01029 -116.89217 27824 ft 296 kts 294°
2026-04-26 15:54 45.01940 -116.91825 27825 ft 296 kts 294°
2026-04-26 15:55 45.02852 -116.94437 27822 ft 297 kts 294°
2026-04-26 15:55 45.03764 -116.97050 27833 ft 296 kts 295°
2026-04-26 15:55 45.04673 -116.99662 27831 ft 296 kts 294°
2026-04-26 15:55 45.05583 -117.02278 27833 ft 296 kts 294°
2026-04-26 15:56 45.06493 -117.04895 27833 ft 296 kts 295°
2026-04-26 15:56 45.07404 -117.07516 27832 ft 296 kts 295°
2026-04-26 15:56 45.08312 -117.10134 27831 ft 296 kts 295°
2026-04-26 15:56 45.09221 -117.12754 27832 ft 296 kts 295°
2026-04-26 15:57 45.10128 -117.15372 27833 ft 297 kts 295°
2026-04-26 15:57 45.11034 -117.17994 27833 ft 297 kts 295°
2026-04-26 15:57 45.11942 -117.20618 27843 ft 296 kts 295°
2026-04-26 15:57 45.12541 -117.22352 27841 ft 296 kts 295°
2026-04-26 15:58 45.13751 -117.25861 27843 ft 297 kts 295°
2026-04-26 15:58 45.14656 -117.28487 27843 ft 296 kts 295°
2026-04-26 15:58 45.15561 -117.31114 27840 ft 297 kts 295°
2026-04-26 15:58 45.16467 -117.33751 27844 ft 298 kts 295°
2026-04-26 15:59 45.17374 -117.36388 27843 ft 297 kts 295°
2026-04-26 15:59 45.18280 -117.39025 27840 ft 298 kts 295°
2026-04-26 15:59 45.19176 -117.41637 27840 ft 299 kts 295°
2026-04-26 15:59 45.20084 -117.44287 27844 ft 299 kts 295°
2026-04-26 16:00 45.20992 -117.46942 27841 ft 299 kts 295°
2026-04-26 16:00 45.21899 -117.49593 27843 ft 299 kts 295°
2026-04-26 16:00 45.22805 -117.52245 27851 ft 299 kts 295°
2026-04-26 16:00 45.23710 -117.54898 27850 ft 298 kts 295°
2026-04-26 16:01 45.24613 -117.57547 27850 ft 298 kts 295°
2026-04-26 16:01 45.25513 -117.60193 27851 ft 298 kts 295°
2026-04-26 16:01 45.26416 -117.62845 27852 ft 298 kts 295°
2026-04-26 16:01 45.27320 -117.65501 27853 ft 298 kts 295°
2026-04-26 16:02 45.28218 -117.68148 27863 ft 297 kts 295°
2026-04-26 16:02 45.29114 -117.70793 27860 ft 298 kts 295°
2026-04-26 16:02 45.30013 -117.73442 27860 ft 298 kts 295°
2026-04-26 16:02 45.30608 -117.75198 27859 ft 298 kts 295°
2026-04-26 16:03 45.31811 -117.78755 27860 ft 299 kts 295°
2026-04-26 16:03 45.32709 -117.81416 27859 ft 299 kts 295°
2026-04-26 16:03 45.33605 -117.84076 27861 ft 298 kts 295°
2026-04-26 16:03 45.34501 -117.86734 27860 ft 298 kts 295°
2026-04-26 16:04 45.35398 -117.89391 27859 ft 298 kts 295°
2026-04-26 16:04 45.36292 -117.92052 27861 ft 298 kts 295°
2026-04-26 16:04 45.37184 -117.94702 27869 ft 297 kts 295°
2026-04-26 16:04 45.38066 -117.97329 27866 ft 297 kts 295°
2026-04-26 16:05 45.38956 -117.99984 27863 ft 297 kts 295°
2026-04-26 16:05 45.39845 -118.02639 27859 ft 298 kts 295°
2026-04-26 16:05 45.40736 -118.05298 27859 ft 298 kts 295°
2026-04-26 16:05 45.41625 -118.07954 27861 ft 297 kts 295°
2026-04-26 16:06 45.42513 -118.10613 27862 ft 297 kts 295°
2026-04-26 16:06 45.43400 -118.13274 27859 ft 298 kts 295°
2026-04-26 16:06 45.44289 -118.15937 27856 ft 298 kts 295°
2026-04-26 16:06 45.45179 -118.18609 27851 ft 298 kts 295°
2026-04-26 16:07 45.46067 -118.21280 27847 ft 299 kts 295°
2026-04-26 16:07 45.46955 -118.23952 27844 ft 298 kts 295°
2026-04-26 16:07 45.47845 -118.26634 27840 ft 299 kts 295°
2026-04-26 16:07 45.48734 -118.29315 27842 ft 299 kts 295°
2026-04-26 16:08 45.49611 -118.31957 27840 ft 299 kts 295°
2026-04-26 16:08 45.50209 -118.33763 27840 ft 299 kts 295°
2026-04-26 16:08 45.51381 -118.37311 27833 ft 298 kts 295°
2026-04-26 16:08 45.52267 -118.39990 27832 ft 299 kts 295°
2026-04-26 16:09 45.53151 -118.42666 27831 ft 299 kts 295°
2026-04-26 16:09 45.54034 -118.45349 27831 ft 299 kts 295°
2026-04-26 16:09 45.54918 -118.48032 27834 ft 299 kts 295°
2026-04-26 16:09 45.55801 -118.50715 27833 ft 299 kts 295°
2026-04-26 16:10 45.56684 -118.53401 27834 ft 299 kts 295°
2026-04-26 16:10 45.57565 -118.56083 27843 ft 298 kts 295°
2026-04-26 16:10 45.58445 -118.58766 27843 ft 298 kts 295°
2026-04-26 16:10 45.59324 -118.61449 27852 ft 298 kts 295°
2026-04-26 16:11 45.60204 -118.64135 27850 ft 299 kts 295°
2026-04-26 16:11 45.61081 -118.66818 27852 ft 298 kts 295°
2026-04-26 16:11 45.61959 -118.69506 27856 ft 298 kts 294°
2026-04-26 16:11 45.62832 -118.72189 27859 ft 298 kts 295°
2026-04-26 16:12 45.63708 -118.74875 27870 ft 298 kts 295°
2026-04-26 16:12 45.64583 -118.77558 27872 ft 298 kts 294°
2026-04-26 16:12 45.66331 -118.82931 27870 ft 298 kts 294°
2026-04-26 16:13 45.67203 -118.85617 27870 ft 298 kts 294°
2026-04-26 16:13 45.68075 -118.88305 27868 ft 298 kts 294°
2026-04-26 16:13 45.68937 -118.90995 27870 ft 298 kts 294°
2026-04-26 16:13 45.69831 -118.93620 27877 ft 298 kts 300°
2026-04-26 16:14 45.71109 -118.95951 27885 ft 299 kts 310°
2026-04-26 16:14 45.72466 -118.98207 27882 ft 299 kts 309°
2026-04-26 16:14 45.75146 -119.02757 27879 ft 299 kts 309°
2026-04-26 16:15 45.76495 -119.05023 27878 ft 299 kts 309°
2026-04-26 16:15 45.77843 -119.07293 27878 ft 299 kts 309°
2026-04-26 16:15 45.79186 -119.09570 27878 ft 299 kts 309°
2026-04-26 16:16 45.81873 -119.14115 27888 ft 299 kts 309°
2026-04-26 16:16 45.83216 -119.16388 27888 ft 299 kts 309°
2026-04-26 16:16 45.84557 -119.18663 27888 ft 299 kts 309°
2026-04-26 16:16 45.85901 -119.20944 27889 ft 299 kts 309°
2026-04-26 16:17 45.87242 -119.23221 27888 ft 299 kts 309°
2026-04-26 16:17 45.88581 -119.25496 27888 ft 298 kts 309°
2026-04-26 16:17 45.89920 -119.27774 27888 ft 298 kts 309°
2026-04-26 16:17 45.91257 -119.30052 27888 ft 298 kts 309°
2026-04-26 16:18 45.92596 -119.32332 27889 ft 298 kts 309°
2026-04-26 16:18 45.95269 -119.36893 27889 ft 298 kts 309°
2026-04-26 16:19 45.97943 -119.41461 27889 ft 298 kts 309°
2026-04-26 16:19 45.99262 -119.43717 27886 ft 298 kts 309°
2026-04-26 16:19 46.01495 -119.47548 27889 ft 298 kts 309°
2026-04-26 16:20 46.03262 -119.50570 27887 ft 297 kts 309°
2026-04-26 16:20 46.05915 -119.55129 27888 ft 297 kts 309°
2026-04-26 16:20 46.07239 -119.57406 27889 ft 297 kts 309°
2026-04-26 16:21 46.08563 -119.59684 27888 ft 296 kts 309°
2026-04-26 16:21 46.09885 -119.61960 27888 ft 296 kts 309°
2026-04-26 16:21 46.11205 -119.64235 27888 ft 296 kts 309°
2026-04-26 16:21 46.12522 -119.66512 27889 ft 296 kts 309°
2026-04-26 16:22 46.13840 -119.68786 27888 ft 296 kts 309°
2026-04-26 16:22 46.15157 -119.71060 27888 ft 295 kts 309°
2026-04-26 16:22 46.16473 -119.73336 27888 ft 295 kts 309°
2026-04-26 16:22 46.17786 -119.75609 27885 ft 295 kts 309°
2026-04-26 16:23 46.19082 -119.77854 27883 ft 295 kts 309°
2026-04-26 16:23 46.20398 -119.80134 27880 ft 295 kts 309°
2026-04-26 16:23 46.21712 -119.82415 27878 ft 296 kts 309°
2026-04-26 16:23 46.23028 -119.84700 27877 ft 296 kts 309°
2026-04-26 16:24 46.24341 -119.86983 27879 ft 295 kts 309°
2026-04-26 16:24 46.25656 -119.89270 27878 ft 295 kts 309°
2026-04-26 16:24 46.26967 -119.91553 27877 ft 295 kts 309°
2026-04-26 16:24 46.28279 -119.93839 27877 ft 295 kts 309°
2026-04-26 16:25 46.29591 -119.96125 27879 ft 295 kts 309°
2026-04-26 16:25 46.30902 -119.98413 27878 ft 295 kts 309°
2026-04-26 16:25 46.32212 -120.00706 27877 ft 295 kts 309°
2026-04-26 16:25 46.33522 -120.02995 27874 ft 296 kts 309°
2026-04-26 16:26 46.34833 -120.05287 27871 ft 296 kts 309°
2026-04-26 16:26 46.35701 -120.06806 27870 ft 295 kts 309°
2026-04-26 16:26 46.37454 -120.09875 27870 ft 296 kts 309°
2026-04-26 16:26 46.38763 -120.12171 27870 ft 296 kts 309°
2026-04-26 16:27 46.40072 -120.14470 27870 ft 296 kts 309°
2026-04-26 16:27 46.41363 -120.16739 27869 ft 295 kts 309°
2026-04-26 16:27 46.42669 -120.19037 27869 ft 296 kts 309°
2026-04-26 16:27 46.43980 -120.21342 27869 ft 296 kts 309°
2026-04-26 16:28 46.45287 -120.23641 27870 ft 296 kts 309°
2026-04-26 16:28 46.46591 -120.25943 27869 ft 295 kts 309°
2026-04-26 16:28 46.47897 -120.28248 27870 ft 295 kts 309°
2026-04-26 16:28 46.49201 -120.30549 27871 ft 295 kts 309°
2026-04-26 16:29 46.50506 -120.32855 27870 ft 295 kts 309°
2026-04-26 16:29 46.51810 -120.35163 27870 ft 295 kts 310°
2026-04-26 16:29 46.53114 -120.37469 27870 ft 295 kts 310°
2026-04-26 16:29 46.54418 -120.39780 27870 ft 296 kts 310°
2026-04-26 16:30 46.55723 -120.42093 27870 ft 296 kts 310°
2026-04-26 16:30 46.57095 -120.44310 27881 ft 295 kts 319°
2026-04-26 16:30 46.58784 -120.45999 27887 ft 295 kts 328°
2026-04-26 16:30 46.60540 -120.47554 27884 ft 295 kts 328°
2026-04-26 16:31 46.62267 -120.49099 27880 ft 296 kts 328°
2026-04-26 16:31 46.63881 -120.50936 27866 ft 295 kts 314°
2026-04-26 16:31 46.65197 -120.53221 27868 ft 295 kts 309°
2026-04-26 16:31 46.66587 -120.55405 27888 ft 294 kts 320°
2026-04-26 16:32 46.68183 -120.57256 27885 ft 294 kts 323°
2026-04-26 16:32 46.69260 -120.58517 27877 ft 294 kts 321°
2026-04-26 16:32 46.71251 -120.61206 27871 ft 295 kts 317°
2026-04-26 16:32 46.72740 -120.63267 27871 ft 295 kts 319°
2026-04-26 16:33 46.74258 -120.65276 27870 ft 295 kts 319°
2026-04-26 16:33 46.75780 -120.67284 27868 ft 295 kts 319°
2026-04-26 16:33 46.76782 -120.68623 27868 ft 295 kts 319°
2026-04-26 16:33 46.78797 -120.71329 27873 ft 294 kts 319°
2026-04-26 16:34 46.80307 -120.73351 27871 ft 295 kts 319°
2026-04-26 16:34 46.81309 -120.74691 27870 ft 295 kts 319°
2026-04-26 16:34 46.82822 -120.76718 27866 ft 295 kts 319°
2026-04-26 16:34 46.84333 -120.78746 27863 ft 295 kts 319°
2026-04-26 16:35 46.85850 -120.80782 27859 ft 296 kts 319°
2026-04-26 16:35 46.87366 -120.82820 27859 ft 296 kts 319°
2026-04-26 16:35 46.88882 -120.84859 27861 ft 295 kts 320°
2026-04-26 16:35 46.90394 -120.86893 27860 ft 295 kts 320°
2026-04-26 16:36 46.91903 -120.88926 27861 ft 295 kts 320°
2026-04-26 16:36 46.93408 -120.90955 27859 ft 294 kts 320°
2026-04-26 16:36 46.94912 -120.92985 27861 ft 294 kts 320°
2026-04-26 16:36 46.96418 -120.95015 27858 ft 293 kts 320°
2026-04-26 16:37 46.97918 -120.97044 27861 ft 293 kts 320°
2026-04-26 16:37 46.99418 -120.99073 27860 ft 293 kts 320°
2026-04-26 16:37 47.00900 -121.01078 27859 ft 293 kts 320°
2026-04-26 16:37 47.02397 -121.03107 27859 ft 294 kts 320°
2026-04-26 16:38 47.03900 -121.05145 27860 ft 294 kts 320°
2026-04-26 16:38 47.05400 -121.07179 27858 ft 294 kts 320°
2026-04-26 16:38 47.06898 -121.09210 27860 ft 293 kts 320°
2026-04-26 16:38 47.08390 -121.11243 27862 ft 292 kts 320°
2026-04-26 16:39 47.09882 -121.13273 27861 ft 293 kts 320°
2026-04-26 16:39 47.11382 -121.15311 27860 ft 293 kts 320°
2026-04-26 16:39 47.12881 -121.17352 27860 ft 293 kts 320°
2026-04-26 16:39 47.14375 -121.19389 27860 ft 293 kts 320°
2026-04-26 16:40 47.15870 -121.21431 27859 ft 293 kts 321°
2026-04-26 16:40 47.17364 -121.23470 27863 ft 293 kts 320°
2026-04-26 16:40 47.18859 -121.25511 27860 ft 293 kts 321°
2026-04-26 16:40 47.20349 -121.27551 27861 ft 293 kts 321°
2026-04-26 16:41 47.21841 -121.29591 27861 ft 293 kts 321°
2026-04-26 16:41 47.23333 -121.31638 27858 ft 293 kts 320°
2026-04-26 16:41 47.24802 -121.33652 27860 ft 292 kts 321°
2026-04-26 16:41 47.26291 -121.35694 27860 ft 292 kts 321°
2026-04-26 16:42 47.27775 -121.37731 27859 ft 292 kts 321°
2026-04-26 16:42 47.29263 -121.39777 27862 ft 292 kts 321°
2026-04-26 16:42 47.30747 -121.41818 27861 ft 292 kts 321°
2026-04-26 16:42 47.32233 -121.43860 27862 ft 292 kts 321°
2026-04-26 16:43 47.33714 -121.45905 27861 ft 292 kts 321°
2026-04-26 16:43 47.35194 -121.47947 27861 ft 291 kts 321°
2026-04-26 16:43 47.36675 -121.49975 27861 ft 290 kts 322°
2026-04-26 16:43 47.38144 -121.52012 27869 ft 290 kts 321°
2026-04-26 16:44 47.39610 -121.54051 27869 ft 290 kts 321°
2026-04-26 16:44 47.41083 -121.56086 27872 ft 289 kts 321°
2026-04-26 16:44 47.42551 -121.58114 27869 ft 290 kts 322°
2026-04-26 16:44 47.44027 -121.60154 27879 ft 290 kts 322°
2026-04-26 16:45 47.45502 -121.62197 27878 ft 291 kts 322°
2026-04-26 16:45 47.46976 -121.64244 27878 ft 291 kts 322°
2026-04-26 16:45 47.48454 -121.66296 27881 ft 292 kts 322°
2026-04-26 16:45 47.49931 -121.68349 27881 ft 291 kts 322°
2026-04-26 16:46 47.51400 -121.70388 27897 ft 288 kts 322°
2026-04-26 16:46 47.52862 -121.72421 27893 ft 289 kts 322°
2026-04-26 16:46 47.54322 -121.74477 27887 ft 290 kts 322°
2026-04-26 16:46 47.55769 -121.76489 27898 ft 289 kts 322°
2026-04-26 16:47 47.57235 -121.78524 27894 ft 289 kts 322°
2026-04-26 16:47 47.58698 -121.80570 27896 ft 289 kts 322°
2026-04-26 16:47 47.60159 -121.82613 27897 ft 288 kts 322°
2026-04-26 16:47 47.61621 -121.84657 27895 ft 288 kts 322°
2026-04-26 16:48 47.63076 -121.86696 27897 ft 288 kts 322°
2026-04-26 16:48 47.64534 -121.88738 27896 ft 288 kts 322°
2026-04-26 16:48 47.65992 -121.90782 27898 ft 288 kts 322°
2026-04-26 16:48 47.67447 -121.92825 27897 ft 288 kts 322°
2026-04-26 16:49 47.68901 -121.94866 27896 ft 288 kts 322°
2026-04-26 16:49 47.70349 -121.96903 27899 ft 287 kts 322°
2026-04-26 16:49 47.71799 -121.98943 27898 ft 286 kts 322°
2026-04-26 16:49 47.73244 -122.00976 27897 ft 286 kts 322°
2026-04-26 16:50 47.74689 -122.03013 27899 ft 286 kts 323°
2026-04-26 16:50 47.76135 -122.05051 27898 ft 286 kts 323°
2026-04-26 16:50 47.77579 -122.07089 27896 ft 286 kts 323°
2026-04-26 16:50 47.79022 -122.09128 27899 ft 286 kts 323°
2026-04-26 16:51 47.80465 -122.11165 27897 ft 286 kts 323°
2026-04-26 16:51 47.81909 -122.13209 27898 ft 286 kts 323°
2026-04-26 16:51 47.83349 -122.15249 27896 ft 286 kts 323°
2026-04-26 16:51 47.84790 -122.17290 27896 ft 286 kts 323°
2026-04-26 16:52 47.86211 -122.19306 27897 ft 286 kts 323°
2026-04-26 16:52 47.87182 -122.20684 27898 ft 286 kts 323°
2026-04-26 16:52 47.89088 -122.23390 27898 ft 286 kts 323°
2026-04-26 16:52 47.90527 -122.25434 27897 ft 286 kts 323°
2026-04-26 16:53 47.92086 -122.27198 27922 ft 279 kts 336°
2026-04-26 16:53 47.93869 -122.28258 27921 ft 275 kts 349°
2026-04-26 16:53 47.95749 -122.28803 27910 ft 275 kts 352°
2026-04-26 16:53 47.97624 -122.29350 27906 ft 275 kts 352°
2026-04-26 16:54 47.99504 -122.29908 27910 ft 275 kts 352°
2026-04-26 16:54 48.01381 -122.30447 27902 ft 275 kts 352°
2026-04-26 16:54 48.03258 -122.30985 27899 ft 275 kts 352°
2026-04-26 16:54 48.05132 -122.31529 27899 ft 274 kts 352°
2026-04-26 16:55 48.07004 -122.32071 27897 ft 274 kts 352°
2026-04-26 16:55 48.08880 -122.32617 27896 ft 274 kts 352°
2026-04-26 16:55 48.10748 -122.33160 27899 ft 273 kts 352°
2026-04-26 16:55 48.12615 -122.33701 27898 ft 274 kts 352°
2026-04-26 16:56 48.16358 -122.34785 27896 ft 274 kts 352°
2026-04-26 16:56 48.18224 -122.35335 27918 ft 273 kts 352°
2026-04-26 16:56 48.20091 -122.35878 27905 ft 273 kts 352°
2026-04-26 16:57 48.21932 -122.36412 27904 ft 273 kts 352°
2026-04-26 16:57 48.23793 -122.36954 27914 ft 272 kts 352°
2026-04-26 16:57 48.27520 -122.38044 27898 ft 272 kts 352°
2026-04-26 16:58 48.29380 -122.38587 27897 ft 272 kts 352°
2026-04-26 16:58 48.30633 -122.38955 27896 ft 272 kts 352°
2026-04-26 16:58 48.34973 -122.40209 27523 ft 279 kts 353°
2026-04-26 16:59 48.36887 -122.40735 27017 ft 280 kts 352°
2026-04-26 16:59 48.40332 -122.43439 25933 ft 285 kts 326°
2026-04-26 17:00 48.43226 -122.47332 24920 ft 269 kts 326°
2026-04-26 17:00 48.46079 -122.50475 23918 ft 242 kts 334°
2026-04-26 17:00 48.47531 -122.51675 23418 ft 235 kts 339°
2026-04-26 17:01 48.49025 -122.52626 22922 ft 232 kts 344°
2026-04-26 17:01 48.50562 -122.53301 22429 ft 229 kts 350°
2026-04-26 17:01 48.52125 -122.53639 21941 ft 226 kts 358°
2026-04-26 17:01 48.53690 -122.53660 21447 ft 224 kts
2026-04-26 17:02 48.55246 -122.53618 20945 ft 223 kts
2026-04-26 17:02 48.56792 -122.53614 20434 ft 222 kts
2026-04-26 17:02 48.58331 -122.53625 19938 ft 220 kts
2026-04-26 17:02 48.59825 -122.53256 19465 ft 221 kts 24°
2026-04-26 17:03 48.60934 -122.51652 19008 ft 228 kts 56°
2026-04-26 17:03 48.61240 -122.49326 18552 ft 237 kts 90°
2026-04-26 17:03 48.60621 -122.46999 18091 ft 247 kts 123°
2026-04-26 17:03 48.59240 -122.45465 17626 ft 252 kts 158°
2026-04-26 17:04 48.57540 -122.44873 17155 ft 251 kts 176°
2026-04-26 17:04 48.55837 -122.45180 16679 ft 246 kts 203°
2026-04-26 17:04 48.54362 -122.46382 16199 ft 236 kts 217°
2026-04-26 17:04 48.52937 -122.47532 15680 ft 231 kts 205°
2026-04-26 17:05 48.51406 -122.48198 15166 ft 227 kts 195°
2026-04-26 17:05 48.49880 -122.48722 14665 ft 223 kts 198°
2026-04-26 17:05 48.48564 -122.49788 14184 ft 211 kts 232°
2026-04-26 17:05 48.47944 -122.51655 13712 ft 194 kts 267°
2026-04-26 17:06 48.48027 -122.53596 13240 ft 182 kts 295°
2026-04-26 17:06 48.48674 -122.55148 12764 ft 172 kts 321°
2026-04-26 17:06 48.49679 -122.56051 12292 ft 168 kts 345°
2026-04-26 17:06 48.50829 -122.56184 11814 ft 167 kts
2026-04-26 17:07 48.51963 -122.55722 11347 ft 173 kts 14°
2026-04-26 17:07 48.53147 -122.55234 10874 ft 179 kts 14°
2026-04-26 17:07 48.54361 -122.54727 10387 ft 183 kts 14°
2026-04-26 17:07 48.55593 -122.54212 9895 ft 185 kts 14°
2026-04-26 17:08 48.56838 -122.53705 9395 ft 186 kts 12°
2026-04-26 17:08 48.58130 -122.53617 8886 ft 188 kts 358°
2026-04-26 17:08 48.59438 -122.53647 8391 ft 188 kts 360°
2026-04-26 17:08 48.60701 -122.53638 7888 ft 172 kts
2026-04-26 17:09 48.61873 -122.53645 7377 ft 166 kts
2026-04-26 17:09 48.62562 -122.53651 7201 ft 132 kts 359°
2026-04-26 17:09 48.63702 -122.53746 6628 ft 116 kts 355°
2026-04-26 17:09 48.64489 -122.53810 6175 ft 113 kts 358°
2026-04-26 17:10 48.65275 -122.53845 5668 ft 113 kts 358°
2026-04-26 17:10 48.66044 -122.53884 5245 ft 110 kts 359°
2026-04-26 17:10 48.66800 -122.53893 4834 ft 108 kts 360°
2026-04-26 17:10 48.67548 -122.53892 4437 ft 106 kts
2026-04-26 17:11 48.67853 -122.54032 3106 ft 68 kts 313°
2026-04-26 17:11 48.67892 -122.52505 3140 ft 206 kts 81°
2026-04-26 17:11 48.68843 -122.51462 2124 ft 194 kts 348°
2026-04-26 17:11 48.69998 -122.52346 1543 ft 182 kts 330°
2026-04-26 17:12 48.71979 -122.53466 1388 ft 118 kts 351°
2026-04-26 17:12 48.72768 -122.53627 1195 ft 113 kts 351°
2026-04-26 17:13 48.74305 -122.53727 909 ft 106 kts 357°
2026-04-26 17:13 48.75017 -122.53753 884 ft 101 kts 357°
2026-04-26 17:13 48.76441 -122.53779 676 ft 103 kts 358°
2026-04-26 17:14 48.77135 -122.53748 504 ft 97 kts 358°
2026-04-26 17:14 48.78398 -122.53756 181 ft 81 kts 356°
2026-04-26 17:14 48.78891 -122.53755 162 ft 58 kts
2026-04-26 17:15 48.79282 -122.53682 158 ft 14 kts 40°
2026-04-26 17:15 48.79343 -122.53606 158 ft 10 kts 38°
2026-04-26 17:15 48.79395 -122.53528 158 ft 11 kts 81°
2026-04-26 17:16 48.79335 -122.53440 158 ft 15 kts 171°
2026-04-26 17:16 48.79272 -122.53397 158 ft 5 kts 139°
2026-04-26 17:16 48.79262 -122.53385 158 ft 0 kts 146°